Terminal Aerodrome Forecast
Issued by NWS Chicago, IL

Home | Current Version | Previous Version | Text Only | Print | Product List | Glossary Off
Versions: 1 2 3 4 5 6 7 8 9 10 11 12 13 14 15 16 17 18 19 20 21 22 23 24 25 26 27 28 29

284
FTUS43 KLOT 191343 AAA
TAFRFD
TAF AMD
KRFD 191343Z 1914/2012 03004KT 5SM BR BKN005 OVC010
     FM191500 34005KT P6SM BKN007 OVC015
     FM191800 30006KT P6SM BKN025
     FM192000 29007KT P6SM BKN035
     FM200000 06005KT P6SM VCSH BKN035
     FM200500 03009KT 6SM -SHRA BR FEW007 SCT010 OVC020=

USA.gov is the U.S. government's official web portal to all federal, state and local government web resources and services.